Regional Weather Roundup
Issued by NWS

Home | Current Version | Previous Version | Text Only | Print | Product List | Glossary Off
Versions: 1 2 3 4 5 6 7 8 9 10 11 12 13 14 15 16 17 18 19 20 21 22 23 24 25 26 27 28 29 30 31 32 33 34 35 36 37 38 39 40 41 42 43 44 45 46 47 48 49 50

228
ASUS45 KBOU 141710
RWRCO

WEATHER ROUNDUP FOR COLORADO
NATIONAL WEATHER SERVICE DENVER/BOULDER CO
1000 AM MST THU DEC 14 2017

NOTE: "FAIR" INDICATES FEW OR NO CLOUDS BELOW 12000 FEET WITH NO
SIGNIFICANT WEATHER AND/OR OBSTRUCTIONS TO VISIBILITY.

COZ001>005-013-030-031-141800-
...NORTHWEST COLORADO...

CITY           SKY/WX    TMP DP  RH WIND       PRES   REMARKS
CRAIG          FAIR      24  19  81 SW7       30.33R WCI  16
HAYDEN         FAIR      29  20  69 W5        30.33R WCI  24
MEEKER         FAIR      30  21  69 NE15      30.33R WCI  19
RABBIT EARS PA LGT SNOW  16  12  86 NW7       30.20R WCI   6
STEAMBOAT SPGS PTSUNNY   25  21  83 CALM      30.29R
WALDEN         CLOUDY    21  10  63 NW10G21   30.26R WCI  10
$$

COZ006>008-011-141800-
...WEST CENTRAL VALLEYS...

CITY           SKY/WX    TMP DP  RH WIND       PRES   REMARKS
GRAND JUNCTION FAIR      41  22  46 NE8       30.30R
MONTROSE       CLOUDY    34  23  64 N7        30.29R WCI  28
EAGLE          CLOUDY    32  26  78 W3        30.30R
RIFLE          FAIR      38  20  48 NW12      30.30R
DELTA          FAIR      40  28  64 E5        30.26R
NUCLA          FAIR      37  23  56 NW6       30.25R
$$

COZ017>023-064>068-141800-
...SOUTHWEST COLORADO...

CITY           SKY/WX    TMP DP  RH WIND       PRES   REMARKS
DURANGO        FAIR      35  18  49 SE14G24   30.11R WCI  26
CORTEZ         FAIR      42  24  49 N15G23    30.14R
PAGOSA SPRINGS PTSUNNY   32  27  79 S9        30.12R WCI  25
TELLURIDE      CLOUDY    28  21  76 CALM      30.19R
WOLF CREEK PAS CLOUDY    18  18 100 N9G18     30.18R FOG     WCI   6
$$

COZ009-010-012-014-032>034-037-058>063-141800-
...CENTRAL COLORADO...

CITY           SKY/WX    TMP DP  RH WIND       PRES   REMARKS
ASPEN          PTSUNNY   29  24  82 N6        30.22R WCI  23
BUENA VISTA    FLURRIES  26  22  84 SE5       30.20S WCI  20
COPPER MTN     NOT AVBL
BERTHOUD PASS  CLOUDY     5  -6  61 N16G29    30.12R WCI -14
COTTONWOOD PAS FAIR      28  25  86 E6        30.18S WCI  22
GUNNISON       FAIR      31  26  82 CALM      30.21R
KREMMLING      CLOUDY    32  21  64 CALM      30.28R
LEADVILLE      CLOUDY    22  12  65 N10       30.17R WCI  11
MONARCH PASS   CLOUDY    14  10  85 N10       30.25R WCI   1
SALIDA         CLOUDY    29  23  81 CALM      30.29S
SUNLIGHT       CLOUDY   N/A N/A N/A NE3       30.27R FOG
WILKERSON PASS FOG      N/A N/A N/A W7        30.14F VSB 1/2
$$

COZ069>075-141800-
...SAN LUIS VALLEY/SANGRE DE CRISTO MOUNTAINS...

CITY           SKY/WX    TMP DP  RH WIND       PRES   REMARKS
ALAMOSA        LGT SNOW  26  23  88 SE10      30.17R FOG     WCI  16
DEL NORTE      FLURRIES  27  24  89 SE6       30.19R WCI  20
LA VETA PASS   LGT SNOW  18  14  86 CALM        N/A
SAGUACHE       FAIR      30  23  74 N5        30.18R WCI  25
$$

COZ035-036-038>040-141800-
...NORTHERN COLORADO FRONT RANGE...

CITY           SKY/WX    TMP DP  RH WIND       PRES   REMARKS
DENVER INTL AP PTSUNNY   33  26  75 SW9       30.21R WCI  25
DMNS CITY PARK NOT AVBL
AURORA         NOT AVBL
FRONT RANGE AP PTSUNNY   34  28  80 SW9       30.22R WCI  26
ERIE MUNI ARPT PTSUNNY   36  28  72 W3        30.29R
BOULDER MUN AP FAIR      34  28  80 N5        30.23R WCI  30
CENTENNIAL     FAIR      31  25  78 S6        30.21R WCI  25
BROOMFIELD     MOSUNNY   36  28  75 SW6       30.22
FORT COLLINS   CLOUDY    33  29  85 NW8       30.24R WCI  26
LONGMONT       PTSUNNY   35  30  81 W3        30.24S
$$

COZ041-046-047-076>085-087-088-141800-
...PIKES PEAK/PALMER DIVIDE AND SOUTHERN FOOTHILLS...

CITY           SKY/WX    TMP DP  RH WIND       PRES   REMARKS
COLO. SPRINGS  PTSUNNY   32  22  66 N5        30.22S WCI  27
A. F. ACADEMY  PTSUNNY   32  21  64 NE8       30.19F WCI  24
SCHRIEVER AFB  PTSUNNY   31  22  69 N5        30.22S WCI  26
CHEYENNE MTN   FLURRIES  28  23  80 SE5       30.15S WCI  23
ELLICOTT         N/A    N/A N/A N/A NW8       30.21R
FALCON         CLOUDY    31  19  62 N10       30.21S WCI  22
FORT CARSON    CLOUDY    32  27  81 SW6       30.22R WCI  26
LIMON          FAIR      32  28  85 W14       30.20R WCI  22
MONUMENT HILL  CLOUDY    28  21  74 NW5       30.21S WCI  23
CANON CITY     CLOUDY    32  32 100 CALM      30.26R
WALSENBURG     CLOUDY    32  28  86 W3        30.26S
TRINIDAD       LGT SNOW  30  26  85 W7        30.26S FOG     WCI  23
$$

COZ042>045-048>051-090-091-141800-
...NORTHEAST COLORADO...

CITY           SKY/WX    TMP DP  RH WIND       PRES   REMARKS
GREELEY ARPT   CLOUDY    38  24  57 NW15      30.23R
AKRON          LGT SNOW  32  26  78 NW23G40   30.18R WCI  19
BURLINGTON     CLOUDY    39  25  57 NW21G35   30.18R
WRAY           CLOUDY    39  28  65 NW18G24   30.17S
YUMA           CLOUDY    34  27  75 W14       30.18R WCI  24
STERLING       CLOUDY    37  28  70 N22G28    30.19R
HOLYOKE        FAIR      43  27  52 NW29G36   30.16R
FORT MORGAN    CLOUDY    32  28  86 N9        30.24R WCI  24
$$

COZ086-089-092>099-141800-
...SOUTHEAST COLORADO...

CITY           SKY/WX    TMP DP  RH WIND       PRES   REMARKS
PUEBLO         CLOUDY    36  30  79 SW6       30.26S
LA JUNTA       CLOUDY    37  32  82 W12       30.25F
LAMAR          CLOUDY    38  32  79 W14       30.21F
SPRINGFIELD      N/A     34  32  92 NW15G24   30.22S WCI  24
$$




USA.gov is the U.S. government's official web portal to all federal, state and local government web resources and services.